date,time,DOY,Ta_1_1_1,Pa_1_1_1,RH_1_1_1,LWin_1_1_1,LWout_1_1_1,SWin_1_1_1,SWout_1_1_1,PPFD_1_1_1,MWS_1_1_1,WD_1_1_1,SWC_1_1_1,Ts_1_1_1
[yyyy-mm-dd],[HH:MM],[ddd.ddd],[K],[Pa],[%],[W+1m-2],[W+1m-2],[W+1m-2],[W+1m-2],[µmol+1m-2s-1],[m+1s-1],[deg],[m+3m-3],[K]
2014-11-15,00:30,319.020,260.84000000000003,95323.266666666663,83.962333333333333,-4.8956666666666662,-9999.0,0.85799999999999998,-2.5763333333333338,-6.00000000000000012E-003,3.8200000000000003,215.71166666666667,0.33999999999999991,274.75500000000005
2014-11-15,01:00,319.041,260.83799999999991,95307.733333333337,83.524666666666661,-4.7293333333333329,-9999.0,0.83933333333333360,-2.7146666666666661,-4.00000000000000008E-003,4.0766666666666662,223.27799999999999,0.33999999999999991,274.75866666666673
2014-11-15,01:30,319.062,260.60900000000004,95299.533333333340,82.343000000000018,-5.0350000000000001,-9999.0,0.79566666666666663,-2.9456666666666669,-1.00000000000000002E-003,3.7399999999999998,215.89966666666666,0.33999999999999991,274.75066666666669
2014-11-15,02:00,319.083,259.80200000000002,95292.266666666663,82.547666666666657,-5.3213333333333326,-9999.0,0.64300000000000024,-2.7580000000000005,-1.00000000000000002E-003,3.7266666666666661,207.11099999999999,0.33999999999999991,274.75333333333339
2014-11-15,02:30,319.104,259.75033333333323,95282.766666666663,83.012666666666661,-5.2906666666666657,-9999.0,0.89966666666666673,-2.4416666666666660,-3.00000000000000006E-003,4.1699999999999999,220.03333333333333,0.33999999999999991,274.75299999999999
2014-11-15,03:00,319.124,259.71433333333346,95261.899999999994,82.862000000000009,-5.6063333333333336,-9999.0,0.64266666666666661,-2.6849999999999996,0.0000000000000000,4.1866666666666674,219.32200000000000,0.33999999999999991,274.75400000000008
2014-11-15,03:30,319.145,259.40333333333331,95265.866666666669,83.766666666666680,-5.2206666666666681,-9999.0,0.60899999999999976,-2.5470000000000010,-1.00000000000000002E-003,4.3233333333333341,219.28833333333333,0.33999999999999991,274.75166666666678
2014-11-15,04:00,319.166,259.19966666666670,95266.866666666669,83.693666666666687,-5.4003333333333332,-9999.0,0.52633333333333321,-2.6436666666666677,-1.00000000000000002E-003,4.1399999999999988,217.35566666666668,0.33999999999999991,274.74966666666666
2014-11-15,04:30,319.187,258.42299999999989,95281.033333333340,83.791333333333341,-5.1189999999999998,-9999.0,0.48266666666666680,-2.9206666666666670,-9.00000000000000105E-003,3.4799999999999995,209.83366666666669,0.33999999999999991,274.74566666666669
2014-11-15,05:00,319.208,257.91133333333335,95291.100000000006,83.634333333333331,-4.9320000000000013,-9999.0,0.42666666666666653,-2.8809999999999998,-5.00000000000000010E-003,3.7400000000000007,204.71099999999998,0.33999999999999991,274.74633333333333
2014-11-15,05:30,319.229,257.92033333333336,95299.899999999994,85.227333333333320,-4.1163333333333334,-9999.0,0.86700000000000010,-2.1746666666666670,-5.66666666666666707E-003,4.3933333333333335,218.47733333333332,0.33999999999999991,274.74900000000002
2014-11-15,06:00,319.249,258.52766666666673,95289.766666666663,86.186333333333337,-0.88533333333333353,-7.5299999999999994,0.30999999999999994,-0.48433333333333345,-6.00000000000000012E-003,4.8166666666666673,224.32200000000000,0.33999999999999991,274.74233333333331
2014-11-15,06:30,319.270,259.41700000000009,95281.833333333328,85.267999999999986,-0.37166666666666676,-9999.0,0.56400000000000006,-0.81066666666666654,-1.00000000000000002E-003,4.4399999999999995,225.02133333333330,0.33999999999999991,274.74499999999995
2014-11-15,07:00,319.291,259.75999999999993,95270.899999999994,83.965666666666664,-0.25400000000000006,-9.5999999999999996,0.63899999999999990,1.83333333333332606E-002,2.4779999999999998,4.2333333333333334,219.70066666666668,0.33999999999999991,274.73999999999990
2014-11-15,07:30,319.312,259.99533333333335,95256.699999999997,83.919333333333341,-0.28733333333333333,-9999.0,3.9359999999999999,11.097000000000001,27.660666666666661,4.1599999999999993,226.00033333333334,0.33999999999999991,274.73999999999990
2014-11-15,08:00,319.333,259.98099999999999,95272.033333333340,82.938666666666677,-0.72066666666666668,-9999.0,25.084000000000000,107.82033333333334,157.30500000000001,3.6166666666666667,222.06666666666666,0.33999999999999991,274.73933333333326
2014-11-15,08:30,319.354,259.87100000000004,95292.399999999994,82.756999999999991,-0.56933333333333325,-9999.0,39.897666666666666,172.15166666666664,280.40200000000004,3.4900000000000011,213.54433333333333,0.33999999999999991,274.73966666666661
2014-11-15,09:00,319.374,260.31666666666678,95300.899999999994,82.719333333333324,-0.93499999999999994,-9999.0,48.611999999999988,219.63900000000004,376.19266666666664,3.5933333333333337,224.76599999999999,0.33999999999999991,274.73933333333326
2014-11-15,09:30,319.395,260.82900000000006,95330.199999999997,82.774000000000015,-0.95266666666666677,-9999.0,47.623666666666672,202.79733333333331,386.05966666666671,3.4533333333333340,226.47733333333332,0.33999999999999991,274.73766666666660
2014-11-15,10:00,319.416,261.04100000000011,95335.066666666666,82.686000000000007,-1.0096666666666665,-9999.0,54.663333333333320,225.32566666666673,429.11399999999992,4.5033333333333330,228.83366666666669,0.33999999999999991,274.73533333333330
2014-11-15,10:30,319.437,261.48533333333336,95315.933333333334,82.146666666666661,-1.4313333333333333,-9999.0,57.239666666666672,242.11466666666669,481.16300000000012,4.3466666666666658,237.28866666666667,0.33999999999999991,274.73466666666661
2014-11-15,11:00,319.458,262.28166666666681,95305.300000000003,80.033333333333317,-1.9076666666666668,-9999.0,78.757666666666665,395.07333333333321,716.44033333333334,3.9066666666666667,237.13366666666667,0.33999999999999991,274.73433333333338
2014-11-15,11:30,319.479,262.86233333333337,95288.566666666666,74.332999999999998,-1.4820000000000000,-9999.0,72.599333333333334,383.20200000000006,704.13199999999983,4.8700000000000010,230.59933333333331,0.33999999999999991,274.73000000000008
2014-11-15,12:00,319.499,263.44400000000002,95269.233333333337,67.688333333333333,-1.5733333333333337,-9999.0,83.194666666666691,465.88966666666670,818.66600000000005,5.0000000000000000,227.13333333333333,0.33999999999999991,274.73300000000000
2014-11-15,12:30,319.520,264.08000000000004,95249.699999999997,63.767333333333326,-1.3950000000000000,-9999.0,85.579999999999998,483.60999999999996,837.80100000000004,5.9933333333333350,238.88833333333332,0.33999999999999991,274.73233333333337
2014-11-15,13:00,319.541,264.60033333333337,95208.633333333331,63.064666666666639,-1.2176666666666667,-9999.0,71.589666666666673,360.48033333333336,678.52800000000002,6.0499999999999998,230.31233333333336,0.33999999999999991,274.73266666666660
2014-11-15,13:30,319.562,264.88000000000005,95176.833333333328,62.985999999999997,-1.2103333333333333,-9999.0,46.591000000000001,214.62633333333332,425.03633333333340,5.3866666666666658,233.23300000000000,0.33999999999999991,274.72533333333337
2014-11-15,14:00,319.583,265.05800000000011,95145.000000000000,60.782333333333327,-1.9933333333333336,-9999.0,43.199666666666673,209.30266666666662,415.62166666666678,5.1933333333333334,234.98900000000000,0.33999999999999991,274.72899999999998
2014-11-15,14:30,319.604,264.94199999999995,95107.166666666672,63.667666666666655,-2.0856666666666670,-9999.0,34.925999999999995,168.04333333333332,332.17066666666676,5.0366666666666662,221.59866666666667,0.33999999999999991,274.72466666666674
2014-11-15,15:00,319.624,264.89999999999986,95082.366666666669,62.709333333333333,-2.0273333333333334,-9999.0,25.081000000000007,115.03166666666668,228.59433333333334,4.8466666666666667,223.16633333333331,0.33999999999999991,274.72399999999999
2014-11-15,15:30,319.645,264.75900000000007,95068.166666666672,62.255333333333354,-1.7580000000000000,-9999.0,17.723999999999993,78.636999999999986,154.50000000000000,4.8399999999999999,218.63266666666667,0.33999999999999991,274.72400000000005
2014-11-15,16:00,319.666,264.52866666666665,95050.733333333337,61.702666666666673,-3.3109999999999995,-9999.0,9.2516666666666669,39.292999999999992,81.493333333333339,4.7999999999999989,220.05533333333332,0.33999999999999991,274.72033333333337
2014-11-15,16:30,319.687,264.06366666666662,95020.333333333328,66.611666666666665,-3.9046666666666661,-9999.0,2.5269999999999992,6.5843333333333325,19.823666666666668,4.4533333333333340,207.95533333333333,0.33999999999999991,274.72000000000008
2014-11-15,17:00,319.708,263.64699999999999,95002.133333333331,67.931666666666686,-4.6850000000000005,-9999.0,0.90233333333333321,-2.2733333333333330,1.3793333333333331,4.0899999999999999,208.10033333333334,0.33999999999999991,274.72166666666669
2014-11-15,17:30,319.729,263.18900000000008,94993.233333333337,69.517666666666656,-4.5466666666666669,-9999.0,0.76300000000000001,-2.5033333333333330,-1.00000000000000002E-003,4.2266666666666675,206.78900000000002,0.33999999999999991,274.72066666666677
2014-11-15,18:00,319.749,263.07333333333349,94990.100000000006,68.805000000000007,-4.1856666666666671,-9999.0,0.78499999999999992,-2.4180000000000001,-5.00000000000000010E-003,4.6866666666666665,210.19933333333333,0.33999999999999991,274.71600000000007
2014-11-15,18:30,319.770,262.78766666666678,94984.466666666660,68.934333333333342,-4.2526666666666655,-9999.0,0.65233333333333332,-2.4949999999999997,-7.00000000000000015E-003,4.7033333333333331,202.67833333333331,0.33999999999999991,274.71400000000000
2014-11-15,19:00,319.791,262.45233333333334,94975.333333333328,70.871000000000009,-4.5153333333333325,-9999.0,0.71033333333333326,-2.5989999999999998,-1.00000000000000002E-003,4.5999999999999996,200.80000000000001,0.33999999999999991,274.71766666666673
2014-11-15,19:30,319.812,262.17933333333343,94959.300000000003,72.037333333333351,-4.2560000000000002,-9999.0,0.57066666666666643,-2.4230000000000000,-6.00000000000000012E-003,4.5966666666666658,195.38833333333332,0.33999999999999991,274.71133333333330
2014-11-15,20:00,319.833,261.92200000000008,94956.600000000006,75.587000000000003,-4.0843333333333334,-9999.0,0.71433333333333304,-2.3726666666666665,-6.00000000000000012E-003,4.7566666666666668,200.38900000000001,0.33999999999999991,274.71366666666671
2014-11-15,20:30,319.854,261.92233333333326,94949.399999999994,79.756666666666675,-3.5933333333333342,-9999.0,0.68299999999999994,-2.2013333333333334,-3.00000000000000006E-003,4.5999999999999996,201.68833333333333,0.33999999999999991,274.71666666666681
2014-11-15,21:00,319.874,261.90899999999993,94927.433333333334,82.994333333333344,-2.1489999999999996,-9999.0,0.55766666666666664,-1.3763333333333325,-6.00000000000000012E-003,4.6766666666666667,201.55633333333336,0.33999999999999991,274.71100000000007
2014-11-15,21:30,319.895,262.07000000000005,94908.333333333328,84.265999999999991,-0.36600000000000016,-9999.0,0.27800000000000014,-0.52033333333333331,-2.00000000000000004E-003,4.9066666666666654,205.19966666666667,0.33999999999999991,274.70633333333330
2014-11-15,22:00,319.916,262.30233333333325,94894.100000000006,84.989333333333349,0.15333333333333335,-8.4573684210526334,0.17833333333333334,-0.24833333333333338,-9.00000000000000105E-003,5.8333333333333339,209.41033333333331,0.33999999999999991,274.70999999999998
2014-11-15,22:30,319.937,262.45133333333337,94883.133333333331,84.870000000000019,0.13866666666666660,-7.7788235294117634,0.13033333333333336,-0.33533333333333321,-8.00000000000000017E-003,5.8266666666666671,211.19999999999999,0.33999999999999991,274.70600000000002
2014-11-15,23:00,319.958,262.46000000000004,94869.600000000006,84.866666666666688,-0.37266666666666665,-9999.0,0.20166666666666672,-0.70500000000000007,-5.00000000000000010E-003,5.0766666666666662,204.85566666666668,0.33999999999999991,274.70499999999993
2014-11-15,23:30,319.979,262.55433333333355,94855.033333333340,84.716666666666683,0.28166666666666662,-7.1592307692307680,0.12066666666666671,-0.24900000000000014,-4.00000000000000008E-003,4.3333333333333330,205.68866666666665,0.33999999999999991,274.70666666666665
2014-11-16,00:00,320.000,262.54000000000013,94833.600000000006,84.997666666666660,0.45400000000000001,-5.5633333333333352,6.20000000000000273E-002,-0.19500000000000003,-6.00000000000000012E-003,3.7800000000000002,198.81066666666666,0.33999999999999991,274.70400000000001
